Location: Tamazert
(32.6352°N, 5.2072°W)
Time: 06:40:02
(UTC+00:00)

Vanguard 2 - Pass Details

Date: 11 October 2022
Orbit: 553 x 2933 km, 32.9° (Epoch: 26 November)

Event Time Altitude Azimuth Distance (km) Brightness Sun altitude
Rises 10:51:57 0° 248° (WSW) 3,413 10.8 46.4°
Reaches altitude 10° 10:54:02 10° 246° (WSW) 2,678 10.4 46.6°
Maximum altitude 11:00:32 75° 162° (SSE) 1,370 10.2 47.2°
Drops below altitude 10° 11:11:48 10° 80° (E) 4,461 11.6 48.1°
Sets 11:16:14 0° 79° (E) 5,832 12.1 48.4°
